#timestamp,LO_Frequency,Hit,StdDev 
1504569615.1,286047002.9,N,1.5
1504569635.9,286047005.2,Y,0.0
1504569655.7,286047002.2,P,0.2
1504569675.5,286047001.6,P,0.4
1504569695.4,286047002.8,P,0.5
1504569715.2,286047002.7,Y,0.0
1504569735.1,286046998.4,P,1.9
1504569736.0,286046998.4,N,1.8
1504569755.8,286046999.3,N,1.6
1504569775.6,286046996.6,N,1.9
1504569795.5,286046997.0,N,1.9
1504569815.3,286046997.1,N,1.8
1504569835.2,286046997.7,N,1.7
1504569855.9,286046997.0,N,1.7
1504569875.7,286046997.4,N,1.6
1504569895.6,286046997.5,N,1.5
1504569915.4,286046995.3,Y,0.0
1504569935.3,286046996.9,P,0.6
1504569955.1,286046997.2,P,0.5
1504569956.0,286046997.2,P,0.4
1504569975.8,286046997.9,Y,0.0
1504569995.7,286046999.3,P,1.0
1504570045.5,286046999.1,E,nan
1504570055.5,286046998.6,N,0.0
1504570075.3,286046998.1,P,0.3
1504570095.1,286046998.1,P,0.2
1504570115.9,286047001.1,Y,0.0
1504570135.7,286047002.5,P,2.1
1504570155.6,286047002.8,N,2.1
1504570175.4,286046999.8,N,1.9
1504570195.2,286047000.6,N,1.7
1504570215.1,286046999.0,N,1.7
1504570216.0,286046999.0,N,1.6
1504570235.8,286046998.6,N,1.6
1504570255.7,286046999.0,N,1.6
1504570275.5,286046998.9,N,1.5
1504570295.3,286046998.7,N,1.5
1504570315.2,286046998.4,N,1.5
1504570335.0,286046998.9,N,1.4
1504570335.9,286046998.9,N,1.4
1504570355.8,286046999.4,N,1.3
1504570375.6,286046999.2,N,1.3
1504570395.4,286046996.9,N,1.4
1504570415.3,286046996.9,N,1.5
1504570435.1,286046996.7,N,1.5
1504570455.8,286046996.8,N,1.6
1504570475.7,286046997.8,N,1.6
1504570495.5,286046997.6,N,1.6
1504570515.4,286046997.1,N,1.6
1504570535.2,286046997.9,N,1.5
1504570555.0,286046997.8,N,1.5
1504570555.9,286046997.8,N,1.5
1504570575.8,286046997.9,N,1.5
1504570595.6,286046997.8,N,1.5
1504570615.5,286046997.4,N,1.5
1504570635.3,286046997.7,N,1.4
1504570655.1,286046997.1,N,1.5
1504570675.9,286046997.8,N,1.3
1504570695.7,286046997.8,N,0.9
1504570715.6,286046997.8,N,0.9
1504570735.4,286046997.9,N,0.8
1504570755.2,286046995.6,Y,0.0
1504570775.1,286046999.2,P,0.6
1504570776.0,286046999.2,N,0.6
1504570795.8,286046998.9,N,0.5
1504570815.6,286046999.2,N,0.5
1504570835.5,286046999.1,N,0.4
1504570855.3,286046997.5,Y,0.0
1504570875.2,286047001.2,P,1.1
1504570895.0,286046998.1,N,1.3
1504570895.9,286046998.1,N,1.3
1504570915.7,286047000.3,N,1.2
1504570935.6,286047000.6,N,1.2
1504570955.4,286047000.9,N,1.2
1504570975.3,286046998.2,N,1.3
1504570995.1,286047000.9,N,1.3
1504570996.0,286047000.9,N,1.2
1504571015.8,286046998.5,N,1.2
1504571035.7,286046998.7,N,1.2
1504571055.5,286046999.3,N,1.2
1504571075.3,286046999.1,N,1.1
1504571095.2,286046999.3,N,1.1
1504571115.0,286046999.1,N,1.1
1504571115.9,286046999.1,N,1.1
1504571135.8,286046999.6,N,1.0
1504571155.6,286046999.0,N,1.0
1504571175.4,286046996.8,Y,0.0
1504571195.3,286046996.5,P,1.5
1504571245.2,286046996.6,E,nan
1504571255.1,286047001.2,N,0.0
1504571256.0,286047001.2,P,0.0
1504571275.8,286047002.7,P,0.7
1504571295.7,286046999.8,N,1.0
1504571315.5,286047000.0,N,1.0
1504571335.3,286047000.2,N,1.0
1504571355.2,286046999.9,N,1.0
1504571375.0,286047000.2,N,0.9
1504571375.9,286047000.2,N,0.9
1504571395.8,286046999.7,N,0.9
1504571415.6,286047002.2,N,1.0
1504571435.4,286047000.3,N,0.9
1504571455.3,286047000.4,N,0.9
1504571475.1,286047000.0,N,0.9
1504571495.9,286046999.9,N,0.9
1504571515.7,286047000.2,N,0.8
1504571535.5,286047000.0,N,0.8
1504571555.4,286047002.7,Y,0.0
1504571575.2,286046999.7,P,0.4
1504571595.1,286047000.9,N,0.5
1504571596.0,286047000.9,N,0.5
1504571615.8,286046998.1,Y,0.0
1504571635.6,286046998.7,P,0.9
1504571655.5,286047000.7,N,0.9
1504571675.3,286047000.7,N,0.8
1504571695.2,286047000.5,N,0.8
1504571715.9,286047000.9,N,0.7
1504571735.7,286047000.0,N,0.7
1504571755.6,286047000.9,N,0.7
1504571775.4,286047001.0,N,0.7
1504571795.2,286047001.0,N,0.7
1504571815.1,286046998.1,N,0.9
1504571816.0,286046998.1,N,1.1
1504571835.8,286046998.5,N,1.1
1504571855.7,286046998.8,N,1.1
1504571875.5,286046999.3,N,1.1
1504571895.3,286046998.4,N,1.1
1504571915.2,286046999.5,N,1.1
1504571935.0,286046997.4,N,1.2
1504571935.9,286046997.4,N,1.2
1504571955.8,286046999.4,N,1.2
1504571975.6,286046999.1,N,1.2
1504571995.4,286046998.6,N,1.2
1504572015.3,286046998.5,N,1.2
1504572035.1,286046998.5,N,1.2
1504572055.8,286047001.0,N,1.2
1504572075.7,286046998.9,N,1.2
1504572095.5,286047001.2,N,1.2
1504572115.4,286047000.7,N,1.2
1504572135.2,286047000.9,N,1.2
1504572155.0,286047001.1,N,1.2
1504572155.9,286047001.1,N,1.2
1504572175.8,286047002.7,N,1.3
1504572195.6,286047002.7,N,1.4
1504572215.5,286047002.8,N,1.5
1504572235.3,286047002.6,N,1.6
1504572255.1,286047002.3,N,1.6
1504572275.9,286047001.0,N,1.6
1504572295.7,286047000.3,N,1.6
1504572315.5,286047002.7,N,1.7
1504572335.4,286047002.4,N,1.7
1504572355.2,286046999.9,N,1.7
1504572375.1,286047000.9,N,1.7
1504572376.0,286047000.9,N,1.6
1504572395.8,286047000.4,N,1.6
1504572415.6,286047000.3,N,1.6
1504572435.5,286046999.8,N,1.5
1504572455.3,286047002.1,N,1.6
1504572475.2,286046999.8,N,1.5
1504572495.9,286047000.2,N,1.3
1504572515.7,286047002.2,N,1.3
1504572535.6,286047002.0,N,1.3
1504572555.4,286043059.3,Y,0.0
1504572575.2,286047001.5,P,0.3
1504572595.1,286047001.6,P,0.3
1504572596.0,286047001.6,P,0.3
1504572615.8,286047002.5,Y,0.0
1504572635.7,286047000.3,P,0.6
1504572655.5,286047001.2,N,0.5
1504572675.3,286047000.7,N,0.4
1504572695.2,286047000.9,N,0.4
1504572715.0,286047000.9,N,0.4
1504572715.9,286047000.9,N,0.3
1504572735.8,286047000.0,N,0.4
1504572755.6,286047002.4,Y,0.0
1504572775.4,286047001.1,P,0.2
1504572795.3,286046998.2,P,1.3
1504572815.1,286047001.2,N,1.2
1504572835.9,286047001.0,N,1.1
1504572855.7,286046998.1,N,1.4
1504572875.5,286047001.2,N,1.3
1504572895.4,286046998.3,N,1.4
1504572915.2,286047000.8,N,1.3
1504572935.0,286047000.9,N,1.3
1504572935.9,286047000.9,N,1.2
1504572955.8,286047000.8,N,1.2
1504572975.6,286046999.8,N,1.2
1504572995.5,286047000.2,N,1.1
1504573015.3,286047001.2,N,1.1
1504573035.1,286047000.6,N,1.1
1504573055.9,286047000.5,N,1.0
1504573075.7,286047000.1,N,1.0
1504573095.6,286047000.6,N,1.0
1504573115.4,286047000.6,N,1.0
1504573135.2,286046998.2,N,1.1
1504573155.1,286047000.4,N,1.0
1504573156.0,286047000.4,N,1.0
1504573175.8,286047000.3,N,1.0
1504573195.7,286046999.9,N,1.0
